FW4637 Weather Reports


time (UTC)temp
F
wind
direction
speed
knots
gust
knots
rain 1hr
in
rain 24hr
in
rain mn
in
humidity
%
barometer
mb
20260503212217 64 200 3.5 9.6 0.00 0.00 0.00 67 1012.9
20260503211503 64 221 3.5 8.7 0.00 0.00 0.00 68 1012.8
20260503211003 64 242 2.6 8.7 0.00 0.00 0.00 68 1012.5
20260503210503 64 214 3.5 7.0 0.00 0.00 0.00 66 1012.6
20260503210003 64 214 3.5 7.8 0.00 0.00 0.00 70 1012.6
20260503205503 63 236 2.6 7.8 0.00 0.00 0.00 68 1012.8
20260503205003 64 207 2.6 6.1 0.00 0.00 0.00 69 1012.8
20260503204503 63 224 2.6 8.7 0.00 0.00 0.00 71 1012.7
20260503204217 63 248 2.6 8.7 0.00 0.00 0.00 71 1012.7
20260503203503 62 286 2.6 7.0 0.00 0.00 0.00 70 1012.8
20260503203003 63 251 2.6 7.0 0.00 0.00 0.00 70 1012.8
20260503202503 62 225 3.5 8.7 0.00 0.00 0.00 71 1012.9
20260503202003 63 193 3.5 8.7 0.00 0.00 0.00 70 1012.9
20260503201503 63 201 2.6 7.0 0.00 0.00 0.00 71 1013.0
20260503201003 63 207 2.6 7.0 0.00 0.00 0.00 71 1012.9
20260503200503 63 202 2.6 7.0 0.00 0.00 0.00 71 1013.0
20260503200003 63 213 1.7 7.0 0.00 0.00 0.00 71 1013.0
20260503195503 62 245 2.6 10.4 0.00 0.00 0.00 72 1012.9
20260503195003 62 223 3.5 10.4 0.00 0.00 0.00 72 1013.0
20260503194716 62 208 3.5 10.4 0.00 0.00 0.00 72 1013.0
20260503194217 63 202 3.5 10.4 0.00 0.00 0.00 72 1013.0
20260503193503 63 217 2.6 10.4 0.00 0.00 0.00 70 1013.0
20260503193003 63 229 2.6 9.6 0.00 0.00 0.00 70 1013.0
20260503192503 63 212 2.6 9.6 0.00 0.00 0.00 68 1013.0
20260503192003 64 218 2.6 7.8 0.00 0.00 0.00 68 1012.9
20260503191503 64 234 2.6 7.8 0.00 0.00 0.00 66 1013.0
20260503191219 64 245 2.6 7.8 0.00 0.00 0.00 67 1012.9
20260503190503 64 214 3.5 8.7 0.00 0.00 0.00 69 1013.0
20260503190003 64 233 2.6 8.7 0.00 0.00 0.00 68 1012.9
20260503185503 65 213 2.6 7.0 0.00 0.00 0.00 68 1013.0
20260503185003 64 201 3.5 7.8 0.00 0.00 0.00 69 1012.9
20260503184503 64 208 2.6 7.8 0.00 0.00 0.00 70 1012.9
20260503184217 64 225 2.6 7.8 0.00 0.00 0.00 70 1012.9
20260503183719 63 246 2.6 9.6 0.00 0.00 0.00 70 1013.0
20260503183003 63 243 2.6 9.6 0.00 0.00 0.00 71 1012.9
20260503182503 63 212 3.5 7.8 0.00 0.00 0.00 72 1012.9
20260503182004 63 201 2.6 7.8 0.00 0.00 0.00 73 1012.8
20260503181504 62 244 1.7 7.0 0.00 0.00 0.00 75 1012.9
20260503181003 61 272 1.7 7.8 0.00 0.00 0.00 79 1012.9
20260503180503 60 269 2.6 7.8 0.00 0.00 0.00 79 1012.9
20260503180003 60 268 2.6 6.1 0.00 0.00 0.00 80 1012.9
20260503175718 59 266 2.6 7.0 0.00 0.00 0.00 79 1012.9
20260503175003 59 287 2.6 7.0 0.00 0.00 0.00 80 1012.8
20260503174503 60 284 2.6 7.8 0.00 0.00 0.00 80 1013.0
20260503174217 59 269 2.6 7.8 0.00 0.00 0.00 79 1012.9
20260503173503 60 234 1.7 6.1 0.00 0.00 0.00 77 1012.9
20260503173003 59 211 2.6 7.8 0.00 0.00 0.00 77 1012.9
20260503172716 59 220 1.7 7.8 0.00 0.00 0.00 76 1012.9
20260503172003 60 250 1.7 6.1 0.00 0.00 0.00 76 1012.9
20260503171503 60 214 1.7 5.2 0.00 0.00 0.00 77 1012.8
20260503171003 60 199 1.7 4.3 0.00 0.00 0.00 78 1013.0
20260503170503 59 196 1.7 4.3 0.00 0.00 0.00 79 1012.9
20260503151003 56 208 0.9 2.6 0.00 0.00 0.00 84 1012.3
20260503150719 56 223 0.9 2.6 0.00 0.00 0.00 84 1012.4
20260503150216 56 239 0.0 2.6 0.00 0.00 0.00 84 1012.3
20260503131003 54 267 0.0 2.6 0.00 0.00 0.00 85 1010.8
20260503130718 54 258 0.0 2.6 0.00 0.00 0.00 85 1010.7
20260503110503 54 258 0.0 2.6 0.00 0.00 0.00 87 1010.9
20260503090503 54 262 0.9 4.3 0.00 0.00 0.00 86 1011.2
20260503090218 54 255 0.9 4.3 0.00 0.00 0.00 86 1011.2
20260503081503 54 259 0.0 1.7 0.00 0.00 0.00 86 1011.7
20260503081003 54 279 0.9 2.6 0.00 0.00 0.00 86 1011.6
20260503080716 54 269 0.9 3.5 0.00 0.00 0.00 86 1011.7
20260503072716 54 262 1.7 6.1 0.00 0.00 0.00 87 1011.7
20260503072003 54 263 1.7 6.1 0.00 0.00 0.00 86 1011.6
20260503071503 54 260 0.9 6.1 0.00 0.00 0.00 87 1011.7
20260503071219 54 259 0.9 6.1 0.00 0.00 0.00 87 1011.7
20260503070503 54 266 0.9 4.3 0.00 0.00 0.00 87 1011.8
20260503055003 55 266 1.7 7.0 0.00 0.00 0.00 86 1012.1
20260503054503 55 261 1.7 7.0 0.00 0.00 0.00 85 1012.1
20260503054003 55 258 1.7 7.0 0.00 0.00 0.00 85 1012.1
20260503053503 55 258 0.9 6.1 0.00 0.00 0.00 85 1012.3
20260503053003 55 278 0.9 4.3 0.00 0.00 0.00 86 1012.3
20260503052503 55 271 0.9 6.1 0.00 0.00 0.00 86 1012.2
20260503052003 55 269 0.9 6.1 0.00 0.00 0.00 86 1012.2
20260503051503 55 267 1.7 5.2 0.00 0.00 0.00 86 1012.2
20260503051003 55 265 0.9 5.2 0.00 0.00 0.00 86 1012.2
20260503050503 55 278 0.9 3.5 0.00 0.00 0.00 86 1012.1
20260503050003 55 286 0.9 5.2 0.00 0.00 0.00 86 1012.1
20260503045503 55 274 0.9 5.2 0.00 0.00 0.00 85 1012.2
20260503045218 55 266 0.9 4.3 0.00 0.00 0.00 85 1012.2
20260503044503 55 272 1.7 5.2 0.00 0.00 0.00 85 1012.2
20260503044216 55 270 1.7 5.2 0.00 0.00 0.00 85 1012.2
20260503043503 55 254 1.7 3.5 0.00 0.00 0.00 85 1011.9
20260503043218 55 260 1.7 6.1 0.00 0.00 0.00 86 1012.0
20260503042719 55 266 1.7 6.1 0.00 0.00 0.00 86 1012.1
20260503042003 55 269 1.7 7.8 0.00 0.00 0.00 86 1012.0
20260503041503 55 273 1.7 6.1 0.00 0.00 0.00 86 1012.0
20260503041218 55 271 1.7 6.1 0.00 0.00 0.00 86 1011.9
20260503040503 55 265 1.7 7.0 0.00 0.00 0.00 86 1012.1
20260503040003 55 255 1.7 7.0 0.00 0.00 0.00 85 1012.0
20260503035503 55 254 0.9 5.2 0.00 0.00 0.00 86 1011.8
20260503035003 55 265 0.9 5.2 0.00 0.00 0.00 85 1011.9
20260503034503 55 270 0.9 4.3 0.00 0.00 0.00 85 1012.0
20260503034216 55 291 1.7 5.2 0.00 0.00 0.00 86 1011.8
20260503033503 55 300 0.9 5.2 0.00 0.00 0.00 86 1011.7
20260503033218 55 279 0.9 5.2 0.00 0.00 0.00 86 1011.6
20260503032503 55 268 1.7 7.0 0.00 0.00 0.00 86 1011.6
20260503032003 55 268 2.6 7.8 0.00 0.00 0.00 86 1011.4
20260503031503 55 268 1.7 7.8 0.00 0.00 0.00 86 1011.3
20260503031218 55 269 1.7 7.8 0.00 0.00 0.00 86 1011.3
20260503030503 55 266 1.7 6.1 0.00 0.00 0.00 86 1011.2
20260503030003 55 266 1.7 8.7 0.00 0.00 0.00 86 1011.2
20260503025503 55 277 1.7 8.7 0.00 0.00 0.00 86 1011.3
20260503025003 55 273 2.6 6.1 0.00 0.00 0.00 86 1011.1
20260503024718 55 271 2.6 7.0 0.00 0.00 0.00 86 1011.2
20260503024003 55 271 2.6 8.7 0.00 0.00 0.00 85 1011.1
20260503023717 55 267 2.6 8.7 0.00 0.00 0.00 85 1011.1
20260503023003 56 265 2.6 7.8 0.00 0.00 0.00 85 1011.2
20260503022503 56 274 1.7 6.1 0.00 0.00 0.00 84 1011.2
20260503022003 56 273 1.7 7.8 0.00 0.00 0.00 85 1011.1
20260503021503 56 261 1.7 7.8 0.00 0.00 0.00 85 1011.2
20260503021003 56 263 1.7 7.8 0.00 0.00 0.00 85 1011.2
20260503020503 56 271 2.6 7.8 0.00 0.00 0.00 84 1011.3
20260503020003 56 273 1.7 7.0 0.00 0.00 0.00 84 1011.2
20260503015503 56 265 1.7 7.0 0.00 0.00 0.00 83 1011.4
20260503015003 56 256 1.7 5.2 0.00 0.00 0.00 83 1011.4
20260503014503 56 255 2.6 8.7 0.00 0.00 0.00 83 1011.4
20260503014003 56 261 2.6 8.7 0.00 0.00 0.00 83 1011.4
20260503013503 57 267 2.6 7.0 0.00 0.00 0.00 82 1011.4
20260503013003 57 263 2.6 7.0 0.00 0.00 0.00 82 1011.5
20260503012503 57 255 2.6 8.7 0.00 0.00 0.00 82 1011.5
20260503012003 57 261 1.7 8.7 0.00 0.00 0.00 81 1011.5
20260503011503 57 277 2.6 7.0 0.00 0.00 0.00 81 1011.6
20260503011003 57 264 2.6 7.8 0.00 0.00 0.00 81 1011.6
20260503010503 57 266 2.6 9.6 0.00 0.00 0.00 81 1011.6
20260503010003 57 279 2.6 9.6 0.00 0.00 0.00 80 1011.7
20260503005503 58 272 1.7 5.2 0.00 0.00 0.00 80 1011.5
20260503005003 58 260 2.6 8.7 0.00 0.00 0.00 80 1011.6
20260503004503 57 264 2.6 8.7 0.00 0.00 0.00 80 1011.5
20260503004219 58 266 1.7 8.7 0.00 0.00 0.00 79 1011.5
20260503003503 58 273 2.6 11.3 0.00 0.00 0.00 80 1011.6
20260503003003 58 270 3.5 11.3 0.00 0.00 0.00 80 1011.7
20260503002503 58 267 2.6 8.7 0.00 0.00 0.00 79 1011.7
20260503002219 58 267 2.6 8.7 0.00 0.00 0.00 79 1011.7
20260503001503 58 263 1.7 7.0 0.00 0.00 0.00 78 1011.8
20260503001003 58 264 2.6 7.0 0.00 0.00 0.00 79 1011.7
20260503000503 58 269 2.6 7.0 0.00 0.00 0.00 78 1011.7
20260503000003 59 287 2.6 7.0 0.00 0.00 0.00 78 1011.9
20260502235720 59 286 1.7 7.0 0.00 0.00 0.00 77 1011.8
20260502235003 59 263 2.6 9.6 0.00 0.00 0.00 78 1011.9
20260502234503 59 270 2.6 9.6 0.00 0.00 0.00 77 1011.9
20260502234003 60 270 2.6 8.7 0.00 0.00 0.00 75 1012.0
20260502233503 60 255 1.7 5.2 0.00 0.00 0.00 76 1012.0
20260502233003 60 248 2.6 9.6 0.00 0.00 0.00 76 1012.0
20260502232503 60 239 2.6 9.6 0.00 0.00 0.00 74 1012.1
20260502232218 60 236 1.7 9.6 0.00 0.00 0.00 73 1012.1
20260502231503 60 236 1.7 6.1 0.00 0.00 0.00 74 1012.2
20260502231216 60 239 2.6 6.1 0.00 0.00 0.00 75 1012.2
20260502230717 60 255 2.6 6.1 0.00 0.00 0.00 75 1012.3
20260502230218 60 263 2.6 7.0 0.00 0.00 0.00 75 1012.3
20260502225503 61 257 1.7 6.1 0.00 0.00 0.00 74 1012.5
20260502225003 61 228 1.7 6.1 0.00 0.00 0.00 75 1012.6
20260502224503 61 231 1.7 6.1 0.00 0.00 0.00 75 1012.5
20260502224003 60 256 1.7 7.8 0.00 0.00 0.00 76 1012.5
20260502223503 60 255 1.7 7.8 0.00 0.00 0.00 75 1012.7
20260502223003 60 252 2.6 10.4 0.00 0.00 0.00 76 1012.8
20260502222717 60 245 2.6 10.4 0.00 0.00 0.00 77 1012.9
20260502222003 60 236 2.6 10.4 0.00 0.00 0.00 76 1012.9
20260502221503 59 252 3.5 8.7 0.00 0.00 0.00 77 1012.9
20260502221216 59 253 2.6 7.8 0.00 0.00 0.00 77 1013.0
20260502220503 59 248 2.6 7.0 0.00 0.00 0.00 77 1013.1
20260502220218 59 243 2.6 7.0 0.00 0.00 0.00 77 1013.1
20260502215503 59 249 2.6 8.7 0.00 0.00 0.00 77 1013.0
20260502215003 59 260 2.6 8.7 0.00 0.00 0.00 78 1013.1
20260502214503 59 250 2.6 7.8 0.00 0.00 0.00 76 1013.1
20260502214003 59 255 3.5 7.8 0.00 0.00 0.00 77 1013.1
20260502213719 59 256 3.5 7.8 0.00 0.00 0.00 77 1013.2
20260502213003 59 258 2.6 9.6 0.00 0.00 0.00 75 1013.1
20260502212503 60 245 1.7 9.6 0.00 0.00 0.00 73 1013.3